Flag for Poland Weather past 2 weeks in Sosnowiec, Poland

Now
50 °F

Passing clouds.


Feels Like: 48 °F
Forecast: 40 / 52 °F
Wind: 5 mph from Southwest

Location: Katowice Airport

Current Time: Oct 21, 2014 at 9:15:29 AM

Latest Report: Oct 21, 2014 at 8:30 AM


Visibility: N/A

Pressure: 29.86 "Hg

Humidity: 94%

Dew point: 48 °F

Location of SosnowiecLocation

Historic Weather in Sosnowiec — Graph

°F

Sosnowiec temperature yesterday

Maximum temperature yesterday: 64 °F (at 3:00 PM)
Minimum temperature yesterday: 52 °F (at 11:00 PM)
Average temperature yesterday: 57 °F

Past Weeks' High & Low Weather Summary

 TemperatureHumidityPressure
High75 °F (Oct 11, 3:00 PM)100% (Oct 6, 8:30 AM)30.33 "Hg (Oct 6, 8:30 AM)
Low36 °F (Oct 6, 8:00 AM)50% (Oct 9, 1:30 PM)29.71 "Hg (Oct 14, 4:30 AM)
Average57 °F85%29.97 "Hg
* Reported Oct 6 8:00 AM — Oct 21 8:00 AM, Sosnowiec, Weather by CustomWeather, © 2014

Note: Actual official high and low records may vary slightly from our data, if they occured in-between our weather recording intervals... More about our weather records

Advertising

Sosnowiec weather history for previous 24 hours

 ConditionsComfort  
Time TempWeatherWind HumidityBarometerVisibility
8:00 AM
Oct 21
50 °FPassing clouds.5 mph88%29.86 "HgN/A
7:30 AM50 °FPassing clouds.5 mph94%29.86 "HgN/A
7:00 AM50 °FPassing clouds.3 mph94%29.86 "HgN/A
6:30 AM50 °FPassing clouds.6 mph94%29.86 "HgN/A
6:00 AM50 °FPassing clouds.7 mph94%29.86 "HgN/A
5:00 AM50 °FPassing clouds.6 mph88%29.86 "HgN/A
4:30 AM50 °FSprinkles. Passing clouds.7 mph94%29.86 "HgN/A
4:00 AM52 °FPassing clouds.6 mph82%29.86 "HgN/A
3:30 AM50 °FPassing clouds.6 mph88%29.89 "HgN/A
3:00 AM50 °FPassing clouds.7 mph88%29.89 "HgN/A
2:30 AM50 °FPassing clouds.7 mph88%29.89 "HgN/A
2:00 AM50 °FClear.6 mph88%29.89 "Hg10 mi
1:30 AM52 °FPassing clouds.8 mph88%29.89 "HgN/A
1:00 AM52 °FPassing clouds.8 mph88%29.89 "HgN/A
12:30 AM54 °FClear.8 mph82%29.89 "Hg10 mi
12:00 AM52 °FClear.7 mph88%29.89 "Hg10 mi
11:30 PM
Oct 20
52 °FClear.8 mph82%29.92 "Hg10 mi
11:00 PM52 °FClear.8 mph82%29.92 "Hg10 mi
10:30 PM54 °FClear.6 mph82%29.92 "Hg10 mi
10:00 PM54 °FClear.7 mph82%29.92 "Hg10 mi
9:30 PM54 °FClear.7 mph77%29.92 "Hg10 mi
9:00 PM55 °FClear.8 mph77%29.92 "Hg10 mi
8:30 PM54 °FClear.9 mph82%29.92 "Hg10 mi
8:00 PM55 °FPassing clouds.8 mph77%29.92 "HgN/A
7:30 PM55 °FPassing clouds.8 mph77%29.92 "HgN/A
7:00 PM55 °FPassing clouds.9 mph77%29.92 "HgN/A
6:30 PM54 °FPassing clouds.9 mph82%29.92 "HgN/A
6:00 PM57 °FScattered clouds.14 mph72%29.92 "HgN/A
5:30 PM59 °FScattered clouds.12 mph72%29.92 "HgN/A
5:00 PM61 °FScattered clouds.10 mph72%29.92 "HgN/A
4:30 PM63 °FScattered clouds.12 mph68%29.92 "HgN/A
4:00 PM63 °FScattered clouds.10 mph73%29.89 "HgN/A
3:30 PM64 °FScattered clouds.13 mph73%29.89 "HgN/A
3:00 PM64 °FPassing clouds.10 mph73%29.89 "HgN/A
2:30 PM63 °FScattered clouds.13 mph77%29.92 "HgN/A
2:00 PM63 °FPartly sunny.12 mph77%29.92 "HgN/A
1:30 PM63 °FScattered clouds.15 mph77%29.92 "HgN/A
1:00 PM63 °FScattered clouds.16 mph77%29.95 "HgN/A
12:30 PM61 °FScattered clouds.12 mph83%29.95 "HgN/A
12:00 PM59 °FScattered clouds.13 mph88%29.98 "HgN/A
11:30 AM59 °FPassing clouds.14 mph88%29.98 "HgN/A
11:00 AM57 °FPassing clouds.9 mph88%29.98 "HgN/A
10:30 AM57 °FPassing clouds.10 mph88%29.98 "HgN/A
10:00 AM57 °FScattered clouds.9 mph94%29.95 "HgN/A
9:30 AM57 °FSprinkles. Broken clouds.9 mph94%29.95 "Hg4 mi
9:00 AM55 °FSprinkles. Broken clouds.9 mph100%29.95 "Hg5 mi
Weather by CustomWeather, © 2014

See weather overviewHow to use our weather pages